Regional Weather Roundup
Issued by NWS Cleveland, OH

Home | Current Version | Previous Version | Graphics & Text | Print | Product List | Glossary On
Versions: 1 2 3 4 5 6 7 8 9 10 11 12 13 14 15 16 17 18 19 20 21 22 23 24 25 26 27 28 29 30 31 32 33 34 35 36 37 38 39 40 41 42 43 44 45 46 47 48 49 50
000
ASUS41 KCLE 121510
RWRCLE
OHIO REGIONAL WEATHER ROUNDUP
NATIONAL WEATHER SERVICE WILMINGTON, OH
1100 AM EDT SAT JUL 12 2014

NOTE: "FAIR" INDICATES FEW OR NO CLOUDS BELOW 12,000 FEET WITH NO
SIGNIFICANT WEATHER AND/OR OBSTRUCTIONS TO VISIBILITY.

OHZ001>008-015>018-024>027-034-035-043-044-121600-
   NORTHWEST OHIO

CITY           SKY/WX    TMP DP  RH WIND       PRES   REMARKS
DEFIANCE       MOSUNNY   81  61  50 SW8       30.14S
FINDLAY        MOSUNNY   81  63  54 S8        30.15S
TOLEDO EXPRESS SUNNY     81  61  50 VRB7      30.14S
TOLEDO METCALF SUNNY     82  59  45 SW10      30.14F
LIMA           MOSUNNY   79  62  56 S9        30.16F
$$

OHZ009>014-019>023-028>033-038-089-121600-
   NORTHEAST OHIO

CITY           SKY/WX    TMP DP  RH WIND       PRES   REMARKS
CLE-HOPKINS    MOSUNNY   80  62  54 SW6       30.19R
CLE-LAKEFRONT  MOSUNNY   80  61  52 W6        30.15S
CUY CO. ARPT   MOSUNNY   81  63  54 W9        30.18R
LORAIN-ELYRIA  SUNNY     83  60  45 SW10      30.17S
ASHTABULA      PTSUNNY   77  61  57 SW6       30.19R
AKRON-CANTON   PTSUNNY   80  58  46 SW8       30.19S
WOOSTER        SUNNY     80  63  55 SW6       30.20S
MANSFIELD      SUNNY     80  60  50 S8        30.19S
YOUNGSTOWN     PTSUNNY   77  61  57 VRB3      30.19S
$$

OHZ042-051>053-060>062-070>072-077>081-121600-
  SOUTHWEST OHIO

CITY           SKY/WX    TMP DP  RH WIND       PRES   REMARKS
CINC-COVINGTON PTSUNNY   80  61  52 SW7       30.19S
CINC-LUNKEN    PTSUNNY   78  65  63 S5        30.18F
HAMILTON       CLOUDY    78  67  68 CALM      30.19S
DAYTON         CLOUDY    79  64  60 SW7       30.19F
WRIGHT-PAT AFB NOT AVBL
DAYTON GENERAL CLOUDY    79  65  62 SW7       30.18S
WILMINGTON     CLOUDY    78  66  66 S6        30.18S
$$

OHZ036-037-039>041-045>050-054>059-063>069-073>076-082>088-121600-
  CENTRAL AND SOUTHEAST OHIO

CITY           SKY/WX    TMP DP  RH WIND       PRES   REMARKS
COLUMBUS       PTSUNNY   81  61  50 SW6       30.17S
OSU AIRPORT    MOSUNNY   80  63  55 W7        30.17S
BOLTON FIELD   SUNNY     79  66  65 S5        30.18S
RICKENBACK AFB MOSUNNY   81  59  45 SW7       30.17F
NEWARK         SUNNY     79  64  60 SW7       30.18S
MARION         MOSUNNY   79  62  56 SW6       30.17F
LANCASTER      MOSUNNY   79  64  60 W8        30.19S
ZANESVILLE     SUNNY     78  64  61 CALM      30.19S
NEW PHILLY     SUNNY     80  64  58 S6        30.19S
$$


USA.gov is the U.S. government's official web portal to all federal, state and local government web resources and services.